Vertical_Velocity
-1 -2 2 3 2 2 2 2 2 -1 1 0 3 1 4 -3 -1 -3 -3 -1 -4 -20 19 3 13 8 3 -9 9 8 5 1 0 -1 -1 2 2 -0 -1 -0 -0 1 1 0
3 1 1 1 0 2 0 1 0 1 -1 -6 0 7 4 -0 7 4 2 0 -2 5 2 4 3 -8 -5 12 -12 3 -3 -3 -3 -0 3 0 -1 1 3 1 -2 -1 0 0
-0 3 -0 1 -1 -2 0 3 -0 3 -2 2 -1 -3 -7 -1 -4 -4 -6 13 9 8 3 -0 -9 -13 6 -4 9 12 10 -8 -6 -2 -0 1 -0 -0 -2 1 1 0 -1 -4
1 -0 1 -1 -0 4 -0 2 1 0 1 2 4 6 -4 -1 -0 -3 -4 -14 1 28 9 8 4 9 8 -1 -0 6 -1 12 3 -1 -3 0 1 2 2 0 3 3 2 2
5 -1 -1 -2 5 1 2 1 1 1 -1 -2 -6 -4 6 -4 -7 -1 0 -3 -1 11 6 4 -1 -7 -6 -6 4 -9 4 -1 4 1 2 1 2 3 1 3 2 1 0 1
1 -1 1 4 -1 0 1 2 1 0 1 -4 4 1 4 1 10 -4 -2 3 1 -1 4 1 5 12 6 2 6 -6 -1 -2 1 1 1 1 3 6 1 -0 3 3 2 2
-3 0 -0 -0 -0 -1 -7 -1 2 3 -2 4 0 -3 8 1 2 7 5 3 5 3 -3 0 -0 -2 -3 10 13 10 9 3 -6 -4 2 -6 -3 1 2 0 -1 -0 3 -0
1 -3 -0 -2 2 4 1 3 3 0 1 3 0 1 9 4 2 3 2 6 2 -0 2 4 3 3 5 3 -2 3 8 14 11 3 7 5 -6 -6 2 2 2 1 -2 0
0 -1 -0 0 0 3 2 -2 3 0 1 3 2 4 8 -1 -1 -2 -0 -3 1 0 0 0 2 1 5 2 1 3 -5 0 9 12 16 16 11 1 2 1 5 1 2 0
2 0 1 -2 1 2 1 3 4 -0 2 1 2 -0 -1 -3 -0 -0 -3 0 0 1 0 -0 1 1 3 -2 1 6 -0 -2 -4 2 -1 -2 -5 7 5 0 3 3 4 3
-0 3 0 3 1 2 2 -0 -1 4 3 2 1 3 3 2 2 2 2 3 2 -1 1 1 2 2 -1 5 2 3 0 3 -3 3 7 3 5 6 5 3 -9 -1 -6 1
0 1 0 0 1 0 0 1 1 3 -0 1 4 6 1 1 1 0 2 1 2 4 -1 -4 -2 -2 1 0 -0 -6 -4 -3 -0 -3 -0 -2 1 1 2 1 1 -1 -6 1
-1 0 -0 5 7 5 1 0 0 -0 1 -3 5 7 1 -0 -0 -0 0 0 0 1 0 1 -1 -5 -6 -3 -1 -1 2 1 0 -0 0 0 -1 -2 -3 -4 -1 1 -1 -2
2 0 1 -0 2 2 2 0 0 2 3 -1 -6 2 4 0 0 -1 -1 -1 -0 -1 -2 1 4 4 4 -2 -8 -7 -4 -3 -0 -1 -0 -3 1 2 1 2 4 2 -1 2
2 1 1 -2 -1 3 0 0 -1 3 -7 3 1 1 1 1 2 1 2 -1 -2 -3 -4 -4 -5 -3 2 3 8 10 4 -4 -7 -5 -2 1 1 3 3 3 -1 -3 1 2
0 -0 0 -3 -1 1 0 -1 0 -0 -1 2 2 1 -1 -1 -1 -1 -0 -1 -0 -1 0 0 -1 -4 -6 -7 -6 -3 -0 3 3 -0 -6 -8 -8 -7 -1 0 -3 0 5 1
1 1 1 -3 0 0 4 0 -0 1 0 1 2 3 0 1 0 1 0 -1 -1 -1 -1 -1 -0 -1 -3 -7 -6 -4 -1 -2 -6 -3 4 3 1 -0 -3 -8 -8 -3 -4 -2
0 1 1 -2 1 3 9 0 -1 -2 0 1 0 1 1 1 -0 1 1 1 -0 -3 -2 -1 -0 -1 -1 0 1 -5 -6 -7 -4 -3 -7 -1 -3 -3 -3 -0 1 0 -1 -4
1 0 1 3 0 3 4 1 1 1 4 -0 -1 -0 -1 -2 -0 3 1 -0 -1 -1 -2 -2 -2 -4 -2 -1 -3 -2 -1 -4 -9 -11 -5 -2 -1 -3 -2 -4 -3 -3 -5 1
1 2 4 1 2 0 6 2 -1 0 4 -1 -1 -0 0 -3 3 6 -1 -4 -1 -1 -5 -3 -1 -2 -5 -5 -2 -2 -1 1 3 2 -3 -7 -10 -5 -4 -3 -5 -2 2 -1
1 2 -1 -0 -0 0 2 0 -1 9 10 0 -0 -0 0 1 1 -3 2 4 0 0 3 4 -1 -2 1 -0 -2 -2 -1 -2 -6 -7 -5 -4 1 2 4 2 -0 -6 -4 -2
-3 -1 -1 2 3 -1 0 2 8 7 1 -1 -1 -1 0 0 -1 -3 -6 -6 -1 2 2 0 -2 1 1 -2 -3 -3 -3 -5 -4 -3 -3 -1 2 -2 -3 -2 -1 -0 -3 -6
3 3 3 5 6 3 2 -0 -1 -2 -1 1 -1 -1 -2 -2 -2 -1 -1 -1 -3 -6 -7 -2 -2 -1 -1 -1 -1 -2 -2 -2 -2 -4 -8 -10 -6 -3 3 -2 -2 -3 3 1
2 -1 1 4 6 1 0 0 -1 -1 -1 -2 -1 0 -0 0 -1 -1 -2 -3 -2 -1 -1 -1 -1 -0 -1 -2 0 2 -1 -1 -3 -5 -3 -2 -3 -11 -4 -1 -1 2 -1 3
3 -0 1 2 3 1 -0 -0 -1 -1 -0 1 -0 0 0 0 1 0 -1 1 0 -0 -1 -2 -2 -0 -1 1 1 -3 -3 1 -1 -4 -3 -2 -3 -4 -6 1 0 -0 -1 8
0 2 1 2 1 -0 0 -1 -0 0 -0 -0 0 0 1 -1 -1 -0 -0 0 -0 -1 -0 -1 -0 -0 -1 -2 -1 0 2 0 -3 -0 -1 -2 1 -3 -1 -3 -11 6 7 -2
Height
1531 1530 1532 1529 1528 1527 1526 1521 1514 1507 1510 1504 1503 1503 1504 1500 1494 1488 1486 1481 1480 1475 1478 1478 1483 1481 1484 1482 1487 1491 1495 1503 1508 1512 1515 1519 1522 1524 1527 1529 1532 1536 1538 1541
1530 1531 1533 1531 1529 1526 1523 1513 1510 1509 1511 1504 1501 1504 1505 1505 1501 1494 1489 1481 1478 1477 1479 1479 1477 1473 1482 1494 1483 1492 1496 1502 1507 1511 1515 1518 1521 1524 1527 1529 1532 1534 1536 1538
1528 1533 1533 1531 1526 1522 1520 1519 1516 1517 1511 1510 1502 1500 1504 1506 1502 1495 1488 1483 1475 1474 1482 1483 1486 1492 1496 1495 1493 1487 1493 1500 1505 1509 1513 1516 1519 1522 1524 1526 1528 1531 1533 1536
1533 1534 1532 1528 1525 1528 1514 1522 1521 1515 1502 1504 1501 1506 1504 1508 1506 1501 1503 1490 1483 1475 1483 1486 1490 1491 1484 1484 1488 1488 1493 1499 1502 1508 1512 1514 1517 1519 1521 1524 1527 1529 1530 1532
1535 1534 1532 1526 1528 1528 1522 1523 1520 1515 1505 1500 1508 1507 1516 1509 1504 1512 1512 1507 1497 1485 1487 1491 1493 1495 1497 1501 1498 1498 1497 1496 1503 1504 1510 1512 1515 1518 1519 1522 1524 1526 1527 1529
1536 1537 1536 1532 1529 1527 1525 1521 1518 1514 1508 1517 1522 1515 1519 1526 1530 1521 1517 1513 1505 1497 1496 1496 1497 1500 1500 1501 1499 1501 1497 1501 1502 1503 1504 1509 1514 1515 1516 1518 1520 1522 1523 1525
1533 1535 1534 1535 1527 1525 1522 1514 1514 1514 1516 1519 1524 1519 1527 1529 1534 1532 1525 1519 1513 1507 1504 1502 1500 1498 1499 1496 1497 1496 1500 1502 1502 1504 1505 1506 1510 1511 1512 1514 1516 1517 1518 1520
1541 1539 1537 1534 1535 1534 1532 1530 1526 1525 1522 1520 1522 1524 1533 1537 1538 1536 1532 1527 1522 1517 1514 1509 1504 1502 1501 1498 1497 1499 1497 1501 1503 1504 1503 1504 1505 1506 1509 1510 1511 1513 1513 1514
1540 1537 1539 1539 1537 1537 1528 1531 1538 1531 1535 1525 1529 1532 1536 1538 1540 1538 1534 1531 1527 1524 1520 1516 1514 1510 1505 1502 1500 1499 1499 1500 1499 1499 1500 1499 1500 1503 1502 1504 1505 1507 1508 1508
1545 1542 1540 1538 1540 1538 1533 1539 1531 1531 1526 1524 1523 1524 1519 1536 1542 1542 1541 1540 1535 1531 1527 1523 1519 1514 1509 1507 1506 1504 1504 1503 1503 1501 1499 1497 1496 1497 1498 1499 1498 1499 1499 1501
1544 1542 1536 1537 1537 1536 1534 1532 1538 1538 1533 1522 1518 1515 1540 1545 1547 1546 1545 1543 1541 1537 1532 1528 1524 1519 1516 1514 1508 1506 1503 1502 1500 1499 1496 1496 1497 1496 1494 1492 1493 1493 1494 1494
1545 1542 1538 1534 1538 1542 1540 1536 1534 1534 1533 1534 1529 1524 1547 1549 1550 1549 1549 1547 1543 1539 1535 1532 1526 1522 1518 1514 1512 1510 1508 1506 1503 1502 1499 1498 1497 1494 1493 1491 1490 1489 1489 1488
1543 1541 1538 1532 1537 1538 1536 1537 1538 1537 1538 1532 1527 1521 1547 1549 1549 1549 1548 1545 1543 1540 1536 1532 1529 1524 1519 1516 1513 1510 1508 1506 1504 1502 1500 1498 1497 1495 1492 1490 1488 1488 1485 1482
1543 1540 1534 1531 1526 1532 1531 1534 1536 1534 1536 1523 1519 1532 1545 1547 1548 1548 1547 1546 1543 1540 1535 1531 1526 1523 1520 1516 1512 1509 1507 1505 1502 1500 1498 1496 1495 1493 1490 1487 1485 1483 1480 1479
1543 1537 1539 1533 1531 1532 1531 1528 1529 1534 1530 1528 1518 1525 1543 1550 1551 1551 1549 1546 1544 1541 1537 1532 1526 1521 1517 1513 1510 1507 1505 1502 1499 1496 1494 1491 1488 1486 1483 1480 1479 1477 1475 1474
1543 1535 1539 1535 1528 1531 1528 1523 1524 1526 1527 1526 1525 1536 1547 1549 1550 1549 1549 1547 1544 1540 1536 1533 1529 1524 1518 1513 1508 1504 1499 1496 1494 1491 1488 1485 1482 1479 1475 1472 1470 1468 1467 1464
1542 1537 1537 1526 1530 1526 1515 1522 1526 1531 1536 1534 1527 1536 1548 1547 1546 1548 1548 1545 1542 1539 1536 1532 1528 1525 1521 1516 1510 1504 1499 1495 1490 1485 1481 1478 1475 1472 1469 1466 1464 1461 1458 1456
1537 1538 1537 1529 1526 1520 1532 1533 1531 1530 1540 1543 1544 1547 1549 1549 1548 1546 1545 1543 1541 1538 1535 1531 1527 1523 1519 1516 1511 1507 1501 1495 1489 1484 1480 1474 1469 1464 1459 1456 1453 1451 1449 1447
1537 1534 1530 1527 1522 1514 1536 1535 1534 1532 1539 1546 1545 1548 1548 1547 1545 1546 1545 1543 1541 1538 1534 1530 1526 1522 1518 1514 1509 1504 1499 1494 1489 1483 1476 1470 1465 1459 1454 1448 1443 1441 1438 1435
1536 1535 1533 1537 1525 1505 1525 1537 1539 1540 1525 1544 1545 1546 1547 1546 1536 1539 1543 1541 1539 1536 1533 1529 1525 1521 1516 1511 1506 1501 1495 1490 1485 1479 1474 1468 1462 1454 1447 1441 1436 1432 1429 1424
1534 1536 1531 1527 1521 1514 1537 1539 1540 1530 1533 1545 1546 1547 1546 1545 1545 1542 1540 1538 1536 1533 1529 1525 1521 1518 1513 1508 1503 1498 1493 1488 1482 1476 1470 1464 1456 1449 1442 1435 1429 1423 1417 1412
1522 1525 1528 1528 1525 1518 1540 1540 1535 1544 1544 1545 1545 1545 1545 1544 1543 1541 1538 1535 1531 1528 1525 1521 1517 1512 1508 1504 1500 1495 1490 1484 1477 1471 1463 1455 1448 1440 1434 1426 1419 1413 1408 1402
1522 1527 1522 1528 1527 1543 1544 1543 1544 1544 1544 1544 1544 1544 1542 1541 1540 1538 1536 1533 1529 1526 1522 1518 1514 1508 1505 1500 1496 1490 1485 1478 1471 1465 1458 1450 1442 1434 1426 1419 1412 1405 1401 1395
1532 1535 1531 1533 1544 1544 1545 1544 1544 1544 1544 1544 1543 1542 1540 1539 1537 1535 1532 1530 1526 1522 1518 1514 1509 1504 1500 1495 1491 1485 1479 1473 1466 1459 1452 1445 1437 1428 1421 1414 1407 1400 1393 1387
1537 1536 1537 1539 1543 1545 1545 1545 1544 1543 1543 1542 1541 1540 1538 1536 1534 1531 1528 1525 1521 1518 1514 1510 1505 1499 1494 1489 1484 1480 1474 1468 1461 1454 1447 1439 1431 1424 1415 1408 1402 1394 1387 1382
1539 1539 1536 1533 1543 1543 1544 1543 1542 1542 1541 1540 1539 1537 1536 1533 1530 1527 1524 1521 1517 1513 1509 1505 1500 1495 1489 1483 1478 1474 1469 1463 1456 1448 1442 1434 1428 1419 1411 1401 1390 1386 1379 1372